GFSSGP_sfc_wetblb_057.txt.gz
Wetbulb
60.61 57.99 55.05 53.40 42.75 38.09 33.90 39.20 43.15 44.57 46.51 47.58 49.50 48.06 50.77 55.81 57.70 53.65 64.00 66.17 67.98 67.82 72.62 75.72 76.96 77.35 77.10 76.67 76.46 76.15 75.90 75.87 76.05 75.75 75.43 75.31 74.89 74.47 73.92 73.75 73.04 71.83 70.86 69.73 69.08 68.28 67.45 66.99 66.78
60.80 58.23 52.21 46.79 38.19 32.47 35.08 40.99 41.57 44.98 48.09 50.06 50.35 50.45 52.98 55.82 62.57 63.92 64.39 66.32 67.77 68.78 72.16 73.85 76.74 76.93 77.01 76.71 76.23 75.87 75.80 76.00 75.82 75.80 75.45 75.18 74.81 74.40 73.45 73.08 72.17 71.03 70.11 69.41 68.67 68.00 67.90 67.67 67.24
62.10 58.88 47.76 43.25 36.34 35.02 36.45 41.54 43.49 47.84 49.55 48.95 48.27 52.22 58.29 59.59 64.20 65.11 66.50 66.81 67.14 69.00 71.17 73.07 76.26 76.73 76.91 76.63 76.25 75.95 75.72 75.65 75.85 75.85 75.50 74.91 74.74 74.29 73.47 73.13 72.34 70.69 70.19 69.62 68.69 68.23 68.49 68.27 67.90
58.53 55.02 49.57 41.80 39.16 41.18 42.36 43.29 45.45 47.38 49.93 49.28 49.36 49.22 60.41 64.60 65.00 66.17 66.67 66.54 67.11 68.56 69.81 74.22 75.71 76.41 76.50 76.56 76.25 75.92 75.82 75.63 75.90 75.93 75.67 74.96 74.44 74.23 73.51 72.76 72.33 71.72 70.22 69.41 69.10 69.00 69.07 68.78 68.65
59.25 52.02 43.36 38.02 40.66 43.69 45.78 45.62 46.65 46.62 47.44 48.79 49.61 49.13 58.68 62.96 67.96 66.90 65.75 66.96 66.09 67.96 68.29 73.00 75.34 75.76 76.34 76.46 76.28 76.02 75.87 75.67 75.74 75.87 75.77 75.30 74.97 74.22 73.46 72.66 71.75 71.66 71.31 70.19 69.46 70.23 70.54 70.33 69.96
52.20 48.30 39.34 40.52 43.06 46.99 48.20 48.29 47.69 46.19 48.34 50.09 49.66 50.34 58.62 65.99 66.16 65.99 65.90 64.90 66.51 66.88 67.79 71.30 74.72 75.44 75.43 75.86 75.87 75.71 75.53 75.53 75.66 75.87 75.82 75.48 75.10 74.46 73.71 72.90 72.01 71.90 71.76 71.29 71.12 71.00 70.80 70.80 71.08
51.19 43.75 40.17 41.03 44.38 46.15 48.60 50.29 48.58 48.47 49.62 50.62 51.43 50.50 57.79 64.01 66.69 65.77 63.76 63.67 64.99 65.99 67.59 69.65 71.42 73.76 75.36 75.28 75.36 75.30 75.17 75.07 75.27 75.17 75.14 75.16 74.99 74.50 73.82 73.19 72.51 72.06 71.89 71.74 71.53 71.37 71.25 70.93 71.07
52.22 49.02 44.10 43.92 44.65 44.29 50.82 51.51 50.65 51.11 51.86 54.62 53.88 49.29 52.21 61.18 66.75 65.35 63.75 62.48 63.48 64.44 66.92 67.63 69.26 70.77 71.79 72.94 75.36 75.22 75.16 75.11 75.11 75.11 75.03 74.95 74.82 74.49 73.93 72.88 72.35 72.06 71.82 71.87 71.94 71.84 71.59 71.22 71.27
52.17 44.72 42.84 45.22 46.76 47.51 52.13 50.44 53.54 56.07 53.85 53.97 54.27 53.58 56.03 64.90 66.80 64.83 64.99 65.33 65.37 65.87 65.80 67.67 68.54 68.50 68.61 69.28 73.21 74.74 75.23 75.26 75.00 75.09 75.05 74.03 72.94 72.55 72.05 72.16 71.55 72.23 71.74 71.84 71.91 72.01 72.03 71.33 71.41
45.68 40.66 45.13 50.70 51.15 49.64 51.72 51.04 52.47 52.42 51.97 52.69 53.71 56.61 57.05 62.22 63.84 63.99 63.08 62.55 63.52 63.80 65.46 67.47 68.15 68.71 68.54 69.73 69.02 70.73 71.88 72.80 72.80 72.99 72.91 72.38 70.17 69.15 70.27 71.10 71.63 71.94 71.74 71.45 71.64 71.83 71.97 70.88 67.64
43.04 41.88 47.87 49.64 50.67 51.31 50.54 50.90 52.66 50.71 49.43 51.23 51.43 54.14 56.12 55.74 59.24 62.00 60.94 64.09 63.26 64.18 65.15 66.61 67.92 68.51 68.01 67.00 68.14 68.48 68.43 68.70 68.86 68.82 68.93 69.52 67.87 67.89 69.00 66.60 67.98 66.99 70.37 66.93 69.04 68.82 68.79 67.04 66.76
38.36 43.94 45.83 47.24 49.59 49.31 48.29 50.71 49.71 50.59 50.83 54.42 54.58 55.32 54.91 54.96 54.04 55.26 58.71 62.59 65.76 67.03 65.97 65.82 66.69 67.08 67.01 66.05 67.78 67.62 67.36 67.53 67.40 67.42 66.81 67.08 65.40 64.75 65.33 65.35 65.02 65.27 64.93 64.92 64.69 65.65 66.42 66.78 66.81
38.38 41.61 44.13 45.60 45.36 46.15 49.35 48.43 49.15 50.10 53.04 54.70 55.06 55.31 54.86 54.77 54.12 55.61 59.94 61.06 65.12 67.05 67.51 66.80 65.41 65.26 65.89 63.24 65.34 66.10 65.83 66.52 66.53 66.50 66.52 66.21 65.43 64.44 64.21 63.76 63.40 63.89 63.58 63.63 63.76 64.23 65.56 65.69 66.35
39.71 39.93 41.85 42.71 43.10 44.14 44.51 45.74 46.89 48.50 51.21 50.57 50.95 51.61 54.62 55.04 54.74 56.83 61.15 61.39 63.95 67.99 68.61 68.40 67.25 65.53 63.96 63.65 62.95 64.23 64.67 64.42 64.67 65.45 65.79 66.26 65.26 64.51 63.43 62.25 62.89 62.24 63.48 63.49 64.06 63.91 64.23 64.64 65.45
40.03 36.71 39.21 41.03 42.53 42.98 46.27 42.83 44.22 48.88 50.32 49.76 50.61 51.70 53.45 55.03 55.62 56.52 60.93 61.44 62.80 66.39 69.08 69.09 68.56 67.60 65.19 63.94 64.72 65.30 65.45 65.51 64.80 64.69 64.73 65.81 65.36 63.88 63.30 62.67 61.59 62.41 63.03 62.55 63.30 62.74 62.40 62.51 63.64
35.34 33.64 29.63 37.86 41.78 42.70 43.73 38.56 45.48 46.91 47.10 47.82 48.86 50.23 51.19 52.37 55.16 55.36 55.33 61.24 62.80 64.22 66.26 69.04 70.49 68.84 66.84 65.78 65.45 66.27 66.42 66.61 66.42 66.28 66.32 66.24 65.86 64.84 63.66 62.83 62.05 61.76 62.32 62.61 62.82 61.96 60.85 61.66 61.95
32.46 27.63 29.97 35.44 40.42 40.60 40.54 36.34 42.22 45.11 44.97 44.73 45.42 46.85 48.70 49.77 51.66 54.93 55.88 57.31 62.29 63.73 63.62 65.29 68.73 68.55 68.14 67.82 67.43 67.45 67.84 67.42 67.88 67.78 67.32 67.16 66.64 65.70 64.98 64.25 63.51 62.16 62.25 61.88 62.48 61.47 61.64 60.50 60.98
29.67 29.75 32.66 32.93 38.46 39.36 38.21 38.09 40.99 43.61 43.93 43.96 44.62 45.55 46.39 47.46 49.09 51.42 54.82 57.66 59.12 63.83 63.90 63.70 63.73 63.43 65.56 67.29 68.05 67.88 68.14 68.09 68.63 68.48 68.15 67.89 67.63 67.11 65.27 65.27 63.78 62.85 62.39 61.96 61.30 61.53 61.80 60.76 61.44
35.48 33.28 32.09 35.58 39.38 36.91 36.03 37.62 40.35 41.62 41.36 41.35 42.51 44.12 45.11 46.34 49.05 51.21 52.79 55.93 57.18 57.48 60.17 61.89 62.48 62.14 62.48 65.66 66.38 67.03 67.40 68.89 69.60 69.76 69.15 68.40 68.32 67.95 65.90 65.63 64.78 63.71 62.81 62.92 62.30 61.62 61.17 60.34 61.33
34.75 31.62 31.78 35.88 39.96 38.10 36.54 36.90 39.75 40.67 40.80 41.19 41.85 42.59 43.70 45.17 47.03 49.00 51.11 52.38 54.44 55.40 58.24 59.83 61.57 63.45 63.42 65.76 67.09 66.70 67.82 69.24 69.44 69.04 68.03 68.51 68.97 68.91 67.48 66.10 65.49 64.25 63.56 62.13 62.78 61.97 60.18 61.35 61.72
33.93 33.01 33.27 33.71 37.94 37.87 35.52 34.65 36.67 39.47 40.90 42.25 42.77 42.93 43.64 43.70 44.72 46.77 48.50 49.73 51.52 53.17 53.98 58.74 60.51 62.03 63.57 66.28 65.55 62.70 63.16 62.57 64.52 64.23 65.14 66.62 67.36 68.33 68.61 66.86 66.03 65.34 65.31 63.26 63.21 62.94 63.00 61.57 62.13
30.80 38.29 37.79 36.21 32.63 25.98 35.31 24.96 32.68 37.10 38.12 39.57 41.16 41.26 42.38 42.96 44.51 45.05 46.03 46.72 48.40 50.38 52.50 55.99 59.58 61.39 63.34 67.11 66.73 65.42 66.54 65.57 62.01 63.26 66.25 64.78 65.14 66.47 68.05 67.80 66.66 66.46 66.16 64.71 63.91 64.15 64.47 63.22 61.23
34.11 39.27 36.26 35.59 30.96 27.44 29.87 24.94 30.19 37.22 35.33 37.69 39.56 41.87 43.48 45.04 45.11 46.22 47.92 48.93 49.62 48.91 50.01 52.52 58.41 60.56 62.33 64.79 67.76 67.26 66.56 64.26 59.82 58.75 60.96 61.93 63.70 66.48 68.52 68.11 67.49 66.75 66.27 65.72 64.59 63.94 64.06 63.92 62.52
40.13 34.95 32.83 30.68 28.13 21.29 28.20 27.12 26.36 30.39 33.60 36.86 40.84 44.00 45.11 45.13 45.74 46.88 48.29 49.30 49.82 50.78 49.94 50.41 55.26 59.46 61.66 63.09 65.68 65.86 65.48 61.10 58.71 59.25 59.82 60.77 63.41 65.83 68.03 68.05 67.35 67.35 66.68 65.71 65.19 64.73 64.11 64.10 63.72
34.05 27.29 20.42 18.97 19.01 20.73 29.81 27.45 30.22 36.31 39.65 40.74 41.32 42.99 44.15 44.84 44.27 44.87 46.15 48.19 49.73 50.27 51.36 51.31 52.86 57.62 60.10 61.74 63.60 63.33 63.51 62.12 60.73 60.50 61.04 62.16 63.34 64.60 66.71 66.88 66.47 66.61 66.54 66.23 65.68 65.26 64.82 64.00 63.13
30.95 28.96 21.13 16.20 18.63 22.27 30.36 23.48 29.62 39.42 42.45 43.12 43.93 43.73 44.19 44.01 42.82 43.32 45.70 47.11 48.82 50.11 50.76 50.97 49.99 55.47 58.73 60.63 62.08 63.07 62.36 61.44 60.31 60.44 62.42 63.83 64.69 65.48 66.90 67.26 66.72 66.68 66.59 66.20 65.26 65.80 64.81 64.11 62.80
30.45 27.28 31.02 24.48 24.46 19.74 24.80 30.10 36.30 39.91 40.40 41.93 41.33 42.48 41.93 42.42 43.24 43.89 45.09 46.68 48.17 49.37 50.44 50.19 52.76 52.52 57.86 59.94 60.96 59.03 60.43 59.83 60.36 61.63 64.13 65.23 65.10 65.95 66.56 66.77 66.34 66.36 66.43 66.00 65.60 64.72 63.76 64.18 63.14
33.43 34.75 23.60 23.87 18.59 18.07 23.32 25.63 27.89 34.08 36.80 39.97 40.24 40.31 41.31 42.38 43.03 44.67 45.75 47.01 48.57 49.19 49.55 54.53 55.13 50.93 55.99 59.05 59.77 59.63 60.62 60.99 61.56 64.23 64.76 65.01 64.30 65.98 66.14 65.89 65.64 65.60 65.89 65.73 65.71 63.47 64.00 63.20 60.64
29.99 28.08 29.51 27.25 25.35 17.25 16.54 23.74 34.23 35.62 38.49 38.84 39.99 41.37 40.82 41.26 43.04 44.53 45.91 47.47 48.22 48.13 49.48 52.94 55.69 51.90 51.21 54.64 56.80 59.25 60.78 61.90 63.90 64.63 65.21 65.30 65.39 65.85 66.32 66.19 65.51 65.33 65.15 65.54 64.21 62.37 62.22 61.26 60.03
34.10 30.82 30.09 19.77 18.72 27.97 24.28 25.22 38.41 38.92 38.60 39.44 39.85 42.44 42.58 43.21 43.74 45.20 46.50 47.17 48.12 46.53 49.31 50.50 53.50 56.95 53.20 55.42 57.48 60.36 61.86 63.92 64.49 64.74 65.16 65.21 65.42 66.09 66.46 66.27 66.10 66.08 65.05 63.98 62.64 62.02 62.10 60.86 59.39

GFSSGP_sfc_wetblb_060.txt.gz
Wetbulb
65.26 57.95 54.10 51.36 42.14 37.88 32.88 37.88 40.84 42.79 44.44 46.68 48.00 46.99 49.19 50.54 56.12 51.43 63.06 65.73 66.25 66.75 73.55 76.09 77.10 77.18 76.91 76.60 76.20 76.12 75.86 75.59 75.68 75.48 75.33 75.45 75.40 75.58 75.33 74.75 74.18 73.10 72.15 71.13 69.98 68.86 67.91 67.16 66.75
64.12 57.54 52.30 45.99 37.93 32.56 33.78 39.17 39.84 43.49 46.79 48.73 48.69 47.60 47.56 47.98 54.07 59.50 62.31 64.80 65.93 67.04 72.73 75.18 76.92 76.75 76.73 76.35 76.02 75.81 75.74 75.61 75.54 75.42 75.30 75.15 75.00 74.73 74.36 74.06 73.15 72.03 71.03 70.25 69.63 68.67 68.18 67.69 67.50
62.31 57.47 47.62 43.27 35.71 33.97 35.65 40.59 42.26 45.64 47.90 47.00 46.53 50.22 50.27 56.17 62.57 63.37 64.84 65.30 65.62 67.65 72.39 74.44 76.87 76.50 76.60 76.50 75.99 75.79 75.91 75.68 75.59 75.57 75.40 75.07 74.87 74.43 74.06 73.66 73.03 71.43 70.55 70.20 69.19 68.78 68.68 68.31 68.17
57.49 55.05 49.88 41.32 38.81 41.18 41.75 42.91 44.00 45.50 48.30 48.04 47.83 48.10 52.07 62.98 64.31 65.40 65.53 65.70 65.45 68.24 71.78 74.64 76.55 76.37 76.50 76.45 75.97 75.74 75.98 75.88 75.63 75.54 75.34 75.19 74.75 74.32 73.83 73.49 72.81 72.33 70.98 70.12 69.41 69.41 69.35 69.00 68.85
57.54 50.51 41.68 38.29 40.31 44.32 45.14 45.75 45.82 45.67 46.48 47.48 48.69 48.60 50.45 62.46 66.93 65.47 64.96 65.63 64.66 67.97 70.42 73.87 76.27 76.15 76.37 76.35 75.95 75.66 75.63 75.65 75.60 75.79 75.46 75.26 74.79 74.37 73.70 73.39 72.79 72.49 72.14 70.84 70.09 70.24 70.70 70.31 69.89
52.25 47.76 39.23 37.03 41.42 45.78 47.59 48.00 46.71 45.61 46.73 49.92 49.63 49.35 53.35 65.49 65.22 63.87 65.05 63.73 65.65 67.19 68.50 73.04 75.99 76.07 75.79 75.87 75.80 75.51 75.15 75.37 75.60 75.58 75.35 75.30 74.87 74.30 73.69 73.38 72.62 72.53 72.27 71.71 71.18 71.18 71.03 70.79 70.92
50.00 44.82 40.29 40.46 44.21 45.87 48.14 49.90 46.63 46.33 48.59 50.55 51.81 47.98 51.76 57.96 64.46 63.36 62.38 63.15 64.65 66.13 67.49 70.77 73.43 74.98 75.97 75.69 75.50 75.33 75.10 74.99 75.15 75.04 74.86 74.89 74.94 74.24 73.91 73.25 72.67 72.22 72.17 71.72 71.66 71.45 71.21 70.99 70.86
50.67 46.86 41.07 41.93 44.51 44.11 50.41 51.34 50.56 50.37 50.92 54.48 54.56 49.27 50.72 60.72 64.16 63.40 63.38 62.55 62.42 63.98 66.76 68.21 69.99 72.59 73.51 74.27 75.57 75.38 75.11 75.11 74.94 74.91 74.88 74.77 74.75 74.33 74.12 72.72 72.56 72.30 72.37 72.22 71.88 71.85 71.72 71.01 71.04
51.09 44.77 41.90 44.37 45.78 46.99 51.49 49.75 52.10 55.16 53.15 52.82 53.82 53.65 55.15 65.04 65.12 63.81 63.50 63.57 63.42 64.31 64.63 66.14 67.79 69.35 70.74 71.74 73.98 75.20 75.28 75.24 75.05 74.93 74.86 73.93 73.46 73.45 72.96 72.77 72.30 72.47 72.25 72.10 72.15 72.14 71.79 71.39 71.00
44.28 39.05 43.69 49.84 50.30 49.12 51.44 50.04 51.26 50.83 50.74 50.59 52.14 54.94 56.55 58.40 63.50 62.27 61.63 60.68 62.43 61.88 64.69 65.44 66.63 67.55 68.38 71.13 71.95 72.51 73.05 73.77 73.91 73.79 73.49 73.33 72.52 71.87 71.62 72.39 72.29 72.44 72.27 71.87 71.87 72.09 72.08 70.77 68.94
39.29 38.45 46.17 49.06 50.33 49.95 49.11 49.16 51.40 48.98 47.70 50.36 49.94 52.16 54.44 55.58 55.94 61.67 61.80 62.21 61.41 62.87 63.86 65.90 66.60 66.94 67.51 67.94 68.11 70.32 71.02 71.39 72.08 71.02 71.57 72.29 70.77 70.64 71.35 69.35 70.72 69.51 71.08 68.32 70.26 70.17 70.21 68.61 68.16
36.54 41.13 45.40 46.70 48.24 46.98 46.76 48.55 47.69 48.67 48.63 52.09 52.65 53.27 53.42 54.19 53.90 54.36 60.11 62.64 63.72 64.64 64.61 65.35 66.50 66.56 66.14 65.36 67.27 68.51 68.67 68.47 69.10 68.78 68.99 68.69 67.36 66.68 67.18 67.03 67.16 67.25 67.12 66.96 66.45 67.12 67.84 68.33 67.61
36.56 38.91 41.39 43.54 44.68 44.96 45.87 45.10 45.72 46.86 49.94 51.85 52.46 52.48 52.39 53.30 54.15 54.11 55.23 58.63 63.41 64.87 65.57 65.75 66.16 66.07 66.18 64.30 65.92 66.09 66.60 66.76 67.05 66.63 66.87 67.05 65.94 64.86 64.98 65.32 65.07 65.50 65.64 65.17 64.97 65.51 66.16 66.92 67.34
38.23 38.35 39.59 41.29 42.62 43.59 43.48 44.17 45.39 47.28 50.14 49.94 50.39 49.75 49.65 52.00 53.56 53.68 57.69 59.74 60.90 66.04 66.44 66.50 65.11 65.48 65.25 64.81 64.69 65.49 65.87 65.65 65.80 65.58 66.03 66.31 65.44 64.41 63.92 63.64 63.78 63.60 64.62 64.84 64.49 64.53 65.16 65.60 66.74
38.41 34.43 37.61 39.46 41.54 41.85 43.85 41.03 42.59 47.25 48.91 48.49 48.80 49.11 49.90 51.42 53.11 53.42 56.14 58.29 60.91 64.38 67.70 66.76 65.62 64.75 64.69 64.55 63.61 64.10 65.31 65.16 64.50 64.99 65.82 66.31 65.52 64.60 64.25 63.05 63.05 63.37 63.51 63.89 64.24 64.11 64.35 64.48 65.11
33.63 32.37 28.72 35.14 39.18 41.54 42.59 37.03 43.72 45.41 45.60 45.47 47.26 47.22 47.87 48.13 49.36 51.33 53.84 53.79 59.08 62.21 66.36 68.08 68.59 66.03 64.17 64.00 63.92 63.73 64.04 64.57 64.46 64.34 64.82 65.78 65.99 65.03 64.19 63.33 62.91 63.02 63.15 63.35 63.46 63.29 62.86 63.09 63.29
31.41 26.03 28.57 34.79 38.61 38.74 38.63 36.04 42.07 44.47 44.25 44.23 45.10 47.16 46.77 46.74 48.17 50.19 51.31 52.53 54.78 59.15 62.91 67.10 68.26 66.96 65.85 64.29 63.28 63.35 63.99 64.54 64.62 64.63 64.84 65.20 65.68 65.45 64.36 63.57 63.37 62.75 62.47 62.80 62.96 62.73 63.18 61.77 62.35
28.01 28.40 30.73 31.45 36.18 37.80 35.47 35.79 40.49 42.85 42.89 43.01 43.69 44.95 46.46 46.89 48.15 49.81 51.08 52.66 53.66 55.62 60.31 62.87 66.80 68.16 67.36 66.51 65.05 65.36 65.44 66.51 66.65 66.91 66.82 66.53 65.95 65.71 64.76 64.54 64.10 63.22 62.55 62.20 62.22 62.49 62.92 62.44 62.94
33.51 31.62 30.87 34.13 37.87 36.60 35.34 36.03 38.32 41.69 41.04 40.62 41.93 43.25 44.48 46.93 48.88 50.01 51.55 52.49 52.75 54.29 55.16 58.11 61.73 63.10 63.88 64.32 65.81 65.76 65.86 66.53 67.11 67.72 68.30 67.72 67.42 67.00 65.58 65.40 64.61 63.79 63.00 63.08 62.83 62.48 62.40 62.16 63.21
33.21 30.32 30.46 34.87 38.43 36.14 35.36 35.45 38.69 39.88 40.55 40.97 41.30 42.25 42.78 44.47 47.03 48.49 49.17 50.56 50.38 51.60 52.33 54.64 57.62 61.19 61.18 64.84 66.85 67.25 67.35 67.83 68.86 69.27 69.08 68.59 68.06 68.03 66.62 66.07 65.29 64.32 63.63 63.17 63.06 62.67 61.62 62.61 63.00
32.52 31.33 31.68 32.58 36.30 35.71 34.12 30.71 33.68 38.43 40.04 41.31 42.31 42.30 42.65 42.75 43.20 46.38 47.47 48.19 48.90 49.47 50.36 51.86 54.40 56.98 59.49 62.53 63.70 64.01 64.52 63.97 65.45 66.22 68.14 68.68 68.91 68.77 68.00 66.87 66.38 64.95 64.83 62.94 63.33 63.28 62.63 61.93 63.01
29.45 37.33 36.51 34.48 30.56 24.25 33.59 22.35 29.52 34.13 35.73 38.45 39.42 39.35 40.72 43.20 45.61 45.93 47.43 48.22 49.13 50.45 49.53 49.41 51.73 54.60 57.76 59.75 62.28 63.86 65.07 65.06 66.71 67.45 67.31 67.62 68.68 68.90 68.88 67.77 66.96 66.05 65.65 64.62 63.94 64.30 64.02 64.41 62.01
32.56 37.90 34.56 33.88 29.14 26.06 27.70 22.96 27.33 33.22 32.60 34.78 38.26 40.20 43.12 44.55 45.26 45.71 46.28 47.76 49.04 50.33 49.45 49.19 49.92 52.15 56.31 58.62 61.90 63.71 63.99 65.36 66.28 62.46 65.33 65.38 65.51 66.58 68.06 68.06 66.92 66.63 66.20 66.16 65.11 64.59 64.74 65.38 63.46
37.73 33.60 30.88 28.09 26.00 19.83 25.83 25.20 23.75 29.28 33.18 36.07 39.90 42.11 43.34 44.23 44.84 45.52 46.66 47.60 47.43 48.82 49.51 49.87 49.47 49.81 54.79 58.23 60.93 63.71 64.87 65.24 61.00 60.95 61.75 62.79 63.29 64.93 66.72 67.63 67.43 66.92 66.60 66.20 65.84 65.56 65.40 64.80 64.72
32.63 26.30 19.62 18.58 18.27 19.15 27.76 25.29 27.47 34.23 37.42 38.10 40.46 42.13 43.31 43.21 43.13 43.50 43.68 45.32 47.02 47.66 48.64 49.56 50.41 49.61 51.35 56.81 59.34 62.02 64.95 65.78 63.61 63.95 62.78 61.08 62.13 64.22 65.82 67.00 66.84 67.16 67.37 67.12 66.81 66.13 66.00 64.49 64.79
29.18 27.64 20.34 15.71 17.55 18.25 28.35 22.42 27.01 36.05 39.06 41.05 42.55 42.63 43.39 43.57 42.92 42.08 43.23 44.27 46.19 47.76 48.46 49.13 49.45 48.77 51.35 53.62 58.55 61.40 63.81 65.32 64.56 63.83 61.88 61.67 62.40 64.14 66.73 67.25 67.43 67.59 67.79 67.55 67.17 66.62 66.20 65.61 64.59
28.99 26.04 28.83 23.34 21.81 17.61 22.66 27.62 34.26 37.84 37.73 39.52 41.01 41.74 41.46 42.49 42.52 42.52 43.81 43.99 45.57 46.98 48.09 49.40 49.01 49.84 54.77 53.02 57.57 60.31 62.42 63.32 62.23 60.57 61.69 61.84 64.09 65.16 66.62 67.59 67.32 67.50 67.66 67.45 66.60 66.24 65.86 65.05 64.18
32.40 33.79 23.48 21.92 17.54 17.69 21.48 23.75 26.06 32.32 35.06 36.73 38.69 39.14 41.29 42.61 41.59 43.17 44.31 45.92 47.79 47.95 48.45 49.40 49.13 51.87 54.33 54.46 55.31 59.82 60.82 61.43 61.16 60.54 61.89 63.54 64.79 66.38 66.73 67.00 67.55 67.41 67.37 66.92 66.13 65.99 65.28 64.41 64.05
28.91 27.13 28.28 25.33 21.65 15.96 15.54 22.72 31.95 32.79 35.59 35.91 36.50 39.66 41.30 42.39 42.10 42.10 44.00 46.65 47.46 47.81 48.56 48.92 49.01 50.79 52.53 55.29 53.84 58.32 59.12 60.47 60.91 61.92 63.12 64.33 64.95 66.31 66.72 67.30 67.17 67.10 66.70 66.27 66.22 65.77 64.49 64.01 62.70
32.72 29.85 29.01 19.84 19.18 27.40 25.01 25.16 36.65 37.10 35.16 37.09 37.80 40.27 42.56 43.72 42.67 42.59 44.09 46.02 47.68 50.97 51.81 50.04 49.23 50.58 53.28 57.74 53.37 57.12 59.12 60.73 61.81 62.95 64.03 64.90 65.38 66.49 67.10 67.07 66.72 66.78 66.52 65.66 65.38 64.02 63.77 63.15 62.17

GFSSGP_sfc_wetblb_063.txt.gz
Wetbulb
67.17 61.57 59.75 58.62 49.32 48.82 44.55 45.57 48.60 48.97 49.18 52.66 53.12 52.39 52.54 54.14 54.85 53.24 69.10 70.46 68.81 71.21 75.50 76.82 76.84 77.09 76.67 76.34 76.14 76.03 75.98 76.38 76.75 77.03 76.85 76.68 76.60 76.58 76.18 76.05 75.44 74.45 73.68 72.51 71.05 69.70 68.78 67.77 67.18
66.23 59.64 57.99 53.95 46.13 42.76 44.62 46.75 47.38 49.76 51.68 53.47 53.44 52.76 52.51 52.96 56.45 59.05 65.70 69.46 68.90 72.74 76.24 76.39 76.81 76.66 76.74 76.19 75.76 75.48 75.46 75.73 75.95 76.15 76.35 76.30 76.20 76.00 75.70 75.20 74.56 73.57 72.54 71.27 70.13 69.00 68.39 68.15 68.00
63.22 59.50 54.85 52.07 46.52 42.08 44.52 46.96 49.32 50.82 52.71 51.47 52.23 55.10 54.00 55.91 63.16 61.53 69.76 68.72 68.67 72.10 74.80 76.60 76.89 76.48 76.64 76.29 75.68 75.31 75.26 75.23 75.46 75.53 75.66 75.63 75.48 75.28 75.00 74.71 74.36 73.15 71.36 70.46 69.74 69.17 68.99 68.67 68.67
60.95 59.62 54.96 47.67 44.28 44.86 45.91 49.64 50.23 50.55 52.74 52.46 53.16 53.90 57.18 65.61 64.80 69.95 70.26 68.55 68.56 71.42 73.60 76.06 76.56 76.53 76.31 76.26 75.86 75.31 75.41 75.31 75.26 75.31 75.31 75.11 75.06 74.73 74.25 74.29 73.81 73.07 71.88 70.79 70.32 70.50 69.90 69.61 69.38
61.17 57.07 46.85 45.52 44.79 46.88 48.29 50.68 51.71 50.87 51.77 52.54 54.93 54.33 55.96 61.63 68.88 68.99 68.90 67.90 68.08 70.64 72.68 75.88 76.35 76.45 76.33 76.18 75.96 75.73 75.60 75.30 75.30 75.36 75.38 75.11 74.90 74.47 74.15 74.06 73.61 73.11 72.69 72.08 71.27 71.14 71.17 70.98 70.26
55.77 55.76 47.18 43.39 44.39 47.50 50.03 52.27 52.45 51.93 52.53 54.65 56.11 55.41 56.78 65.51 67.84 67.83 68.13 67.92 69.08 70.76 72.74 74.54 76.46 76.28 76.00 76.01 75.81 75.52 75.41 75.22 75.37 75.35 75.32 75.10 74.82 74.38 74.15 73.79 73.51 73.15 72.79 72.29 71.79 71.60 71.48 71.31 71.44
53.31 51.73 47.25 47.31 46.53 48.10 50.41 53.05 52.22 52.77 54.70 54.76 57.50 53.02 57.96 60.35 67.38 67.29 67.19 68.05 69.28 71.31 71.95 74.50 75.46 76.59 76.25 75.70 75.30 75.24 75.24 75.06 75.11 75.04 74.89 74.84 74.79 74.32 73.90 73.81 73.14 73.07 72.79 72.28 71.76 71.68 71.56 71.21 71.41
57.02 53.28 47.41 48.27 46.04 47.05 52.56 53.74 55.26 54.27 53.99 58.28 58.04 54.27 55.26 59.32 67.52 67.42 67.52 67.35 68.38 69.80 70.74 73.35 74.76 75.04 75.45 75.59 75.42 75.33 75.25 75.10 74.90 75.10 74.87 74.74 74.75 74.40 73.92 72.96 72.72 72.80 72.75 72.45 72.10 72.00 71.68 71.16 71.11
57.01 48.96 45.36 47.32 47.49 49.00 53.77 52.02 55.35 57.13 55.29 55.91 56.94 57.07 58.22 60.13 67.44 66.86 66.44 66.33 66.80 67.49 69.90 71.97 73.26 74.25 74.66 74.37 75.12 75.32 75.56 75.45 75.19 75.27 75.04 74.47 74.16 74.43 74.09 72.82 72.99 72.65 72.77 72.57 72.30 72.22 71.92 71.43 71.01
50.91 46.83 47.15 51.85 52.44 51.47 52.87 52.68 53.46 52.74 53.78 54.14 55.22 57.14 58.33 58.50 61.33 64.63 65.30 65.47 65.58 65.87 67.54 70.64 72.26 73.38 74.07 73.56 74.77 74.96 74.63 75.01 74.85 75.07 75.33 74.68 74.73 74.65 73.35 73.39 72.66 73.01 72.72 72.52 72.25 72.27 72.21 71.09 69.39
48.59 45.39 49.89 52.18 53.78 53.82 52.72 50.99 53.20 51.05 50.53 54.09 52.32 54.38 55.69 57.47 59.47 60.76 64.88 66.06 65.89 66.50 67.42 68.76 71.44 72.83 73.00 72.29 73.31 74.02 74.10 74.49 74.81 75.03 75.09 75.03 73.86 73.26 73.74 73.19 73.16 72.81 72.39 70.79 70.77 70.65 69.41 68.81 69.14
43.60 46.87 48.83 50.87 52.71 51.07 51.48 49.85 49.30 50.28 51.40 53.15 53.47 54.34 55.80 55.78 56.98 58.40 60.85 64.38 66.07 66.12 66.72 68.33 69.91 70.64 71.97 72.02 71.85 72.48 73.02 73.49 73.16 73.77 74.46 73.74 71.91 71.88 72.97 72.19 72.23 72.72 71.39 71.14 70.46 69.26 69.66 69.70 69.40
43.94 44.97 46.06 47.61 47.53 48.36 48.95 48.91 48.51 48.87 50.57 51.74 53.04 53.78 53.83 54.87 56.50 59.51 60.73 62.96 65.86 67.10 67.32 67.73 69.35 70.23 70.81 70.70 70.79 71.66 72.34 72.06 72.47 72.92 73.71 73.50 72.02 71.67 72.07 71.98 71.74 71.25 70.98 70.20 69.41 69.02 69.01 68.82 69.13
44.32 44.32 44.96 45.86 46.66 46.46 45.97 47.26 47.67 49.16 50.81 50.69 51.95 52.54 53.64 54.61 56.19 58.72 60.48 62.35 65.12 67.37 69.29 69.25 69.33 70.23 70.59 70.56 71.17 70.96 70.73 71.04 71.32 71.24 71.88 72.71 72.02 71.81 70.69 70.91 70.62 70.10 70.17 69.47 68.72 68.17 68.08 68.10 68.27
44.15 41.78 43.60 44.49 45.73 45.34 46.44 43.97 44.83 47.40 49.53 48.73 50.15 51.01 51.83 52.71 53.83 55.11 57.65 59.69 61.99 65.89 68.33 70.49 69.42 69.95 68.62 68.32 70.24 69.45 69.40 69.49 69.28 69.40 70.97 70.71 70.87 70.62 70.50 69.32 69.23 68.95 69.29 69.32 68.78 68.52 68.17 67.46 67.91
41.15 40.74 38.22 42.11 43.18 44.73 45.16 41.38 45.29 47.28 47.47 47.05 48.13 49.54 50.39 52.40 53.53 55.56 56.62 58.51 60.54 63.01 66.91 71.06 70.55 69.47 69.68 69.68 69.73 68.56 68.93 68.81 68.68 68.68 68.78 69.11 69.28 69.55 69.06 67.19 67.68 68.26 68.37 67.70 66.95 66.95 66.60 66.71 66.94
39.44 35.65 36.95 39.65 44.36 44.00 43.24 40.86 44.49 47.19 46.66 46.50 47.80 48.59 49.57 51.16 53.83 56.00 56.55 57.45 59.33 61.21 63.07 66.71 71.23 71.28 69.56 69.91 69.48 68.30 69.66 68.31 68.75 68.48 68.39 68.18 68.54 68.39 67.55 67.11 68.43 68.79 67.35 66.28 67.07 66.79 67.18 66.91 67.13
35.51 36.12 37.39 37.79 41.66 43.55 41.83 41.41 44.45 46.27 45.63 45.91 46.99 47.54 48.95 50.46 52.02 54.53 55.86 56.92 58.33 60.41 61.82 64.33 68.59 71.76 72.08 69.53 69.10 67.98 67.43 67.61 68.48 67.63 67.97 68.61 68.34 67.52 67.65 68.05 68.46 68.74 67.29 67.46 67.49 67.52 67.78 67.66 68.21
38.94 37.48 36.66 39.43 42.18 41.53 41.12 41.21 42.99 45.48 45.46 45.38 45.88 47.15 48.50 49.05 52.56 53.64 54.77 56.81 57.53 59.43 60.55 61.17 62.48 68.44 71.98 70.73 69.50 68.62 66.69 67.30 67.56 68.35 68.83 69.32 69.56 68.08 68.45 68.46 68.11 68.60 68.37 68.96 68.69 68.22 67.73 67.57 68.30
38.50 36.92 36.82 40.39 42.44 41.26 40.67 40.00 42.78 44.36 45.21 46.49 46.49 46.50 47.36 48.39 49.45 51.06 53.93 55.68 57.34 57.84 59.21 60.46 61.08 62.51 67.05 70.04 71.49 71.61 71.31 70.62 69.63 69.78 71.36 71.25 70.45 70.14 68.56 66.92 68.78 68.82 68.48 69.57 69.12 68.65 67.62 68.25 68.40
38.13 37.39 37.32 36.67 39.90 41.10 39.68 37.67 39.65 42.75 44.27 45.61 46.76 47.39 47.45 47.28 47.63 51.55 53.03 54.45 55.82 56.44 58.12 58.83 59.70 60.82 62.38 65.86 68.83 71.15 71.74 71.46 71.31 71.41 71.21 71.85 71.78 71.76 71.09 71.02 70.58 70.42 69.86 69.49 69.54 68.85 69.05 67.69 67.53
36.22 41.48 39.44 37.56 36.21 32.32 38.88 30.63 37.49 40.43 41.77 43.78 45.82 47.77 48.79 48.88 50.73 51.49 52.24 52.93 54.11 55.10 56.52 57.76 59.26 60.11 61.07 62.74 64.93 69.13 67.49 68.00 70.24 71.82 72.44 72.91 72.16 71.86 72.09 72.43 71.41 70.97 70.49 71.47 70.25 69.78 69.62 69.37 67.41
37.50 41.65 39.18 38.09 36.57 34.68 35.10 32.23 36.72 39.83 39.38 42.41 44.87 46.64 49.71 50.49 50.59 51.00 51.59 52.44 53.48 54.90 55.50 56.51 58.56 59.58 61.09 61.66 63.10 64.05 67.30 67.83 70.46 71.04 73.41 72.33 72.24 72.99 72.55 73.62 72.19 71.73 71.11 71.56 71.12 69.59 68.89 69.17 68.99
41.90 39.21 37.06 36.32 35.65 29.37 33.16 32.83 34.08 37.27 40.01 42.38 44.47 46.21 48.28 50.62 51.05 52.13 52.91 52.92 53.40 54.91 55.60 56.17 56.68 58.58 60.22 60.52 61.39 63.59 66.35 67.89 67.67 69.21 69.08 70.30 70.53 71.93 73.10 73.10 72.66 72.52 71.76 71.39 70.90 70.40 69.49 69.69 69.85
39.64 36.28 30.41 28.32 28.34 28.63 34.14 32.05 34.98 40.12 42.58 43.67 43.69 45.58 48.21 50.60 50.78 50.81 51.23 51.84 52.97 54.18 54.89 55.53 56.45 57.03 59.33 59.19 59.36 61.94 65.28 67.44 68.18 68.78 68.43 68.39 67.71 69.02 71.01 72.23 72.07 71.53 71.98 71.93 71.29 70.44 70.08 70.44 69.26
37.22 36.50 31.19 21.85 25.11 28.99 33.91 29.62 36.11 41.66 43.88 45.11 46.05 47.58 48.84 48.76 50.33 50.33 50.99 51.81 52.76 54.58 55.19 55.29 55.64 56.42 57.98 58.19 59.52 62.18 64.33 64.48 67.35 69.21 68.94 67.39 67.33 69.88 72.13 71.63 71.78 71.63 71.74 71.55 71.14 70.45 70.23 70.71 69.40
35.70 33.72 37.06 31.71 30.61 27.82 31.92 35.27 39.58 42.33 42.62 43.77 44.82 46.56 46.95 48.23 50.31 50.69 50.95 51.74 53.01 55.31 55.75 56.08 55.85 56.46 57.78 57.89 60.24 61.66 63.22 65.86 66.90 69.97 71.10 69.23 70.27 70.02 70.89 70.83 70.94 71.56 71.84 71.63 71.49 70.99 70.86 70.42 69.62
38.97 39.88 31.31 33.26 23.54 22.23 29.54 31.05 32.99 38.13 40.03 42.62 44.49 45.11 46.57 48.43 50.20 51.29 51.40 51.98 53.67 55.44 56.47 57.97 57.82 57.13 57.53 58.11 59.23 60.59 62.51 65.10 67.34 69.21 69.78 69.46 70.12 70.10 70.14 70.78 71.48 71.85 71.98 71.98 72.21 71.76 72.03 71.08 69.50
36.14 34.75 34.85 34.28 32.23 25.61 24.36 30.74 39.54 39.50 41.70 42.19 43.68 45.36 46.23 48.12 49.71 51.08 51.25 52.28 54.29 55.52 56.35 57.43 59.09 58.73 58.66 59.70 59.77 60.85 62.22 64.55 65.97 67.35 67.57 68.79 69.70 69.74 69.89 70.61 71.13 71.74 72.00 72.23 72.04 71.71 71.02 69.77 67.05
38.46 36.86 36.95 30.19 28.16 31.63 30.41 30.58 42.32 42.89 43.08 43.51 44.51 46.01 47.51 48.89 49.89 50.49 51.93 53.26 54.32 54.46 54.61 55.58 57.54 58.71 60.35 60.81 60.36 61.01 63.48 64.68 65.08 65.94 66.94 68.18 68.67 69.59 69.72 70.46 70.88 71.64 71.82 72.03 71.31 70.53 69.78 68.39 66.26

GFSSGP_sfc_wetblb_069.txt.gz
Wetbulb
67.54 66.67 61.56 60.11 53.52 52.95 52.30 54.23 55.92 53.42 53.80 57.15 58.05 56.50 57.54 59.18 57.08 56.18 69.65 71.02 70.74 74.64 75.30 76.44 76.95 77.78 78.08 78.13 77.93 77.53 77.20 76.95 76.95 76.85 76.90 76.92 77.00 77.15 77.17 76.64 76.42 75.70 75.17 73.87 72.72 71.31 69.97 69.04 67.90
65.36 64.17 60.81 57.18 51.08 49.90 51.31 56.43 53.09 55.57 56.31 57.13 56.96 56.69 55.87 56.20 61.94 64.77 68.59 71.89 70.61 75.31 75.79 75.41 76.87 77.27 77.82 77.90 77.80 77.44 77.25 77.05 76.92 76.95 76.97 77.12 77.14 77.07 76.79 76.54 75.97 75.29 74.14 72.85 71.40 69.99 68.94 68.06 67.56
65.61 62.20 57.10 54.29 51.15 49.26 51.64 54.11 54.84 56.02 55.94 55.60 55.63 57.88 58.25 58.88 64.58 66.30 71.06 72.83 70.80 75.23 76.10 75.74 76.77 76.97 77.72 77.77 77.59 77.26 77.24 77.09 77.10 77.10 77.10 77.32 77.09 76.99 76.66 76.29 75.94 74.56 73.38 71.86 70.40 69.56 68.91 68.44 68.21
62.93 61.72 57.28 51.01 49.96 53.10 53.34 54.96 55.13 54.70 55.55 56.49 56.57 55.72 60.05 64.68 64.39 68.20 71.91 73.59 72.10 73.90 75.70 76.26 76.35 76.70 77.27 77.49 77.41 77.18 77.16 77.34 77.24 77.17 77.22 77.19 76.87 76.61 76.10 76.12 75.59 74.86 72.96 71.45 70.46 70.17 69.90 69.24 69.00
62.49 59.36 53.37 50.64 50.73 53.56 53.84 54.40 56.27 54.09 55.00 55.16 56.32 55.54 58.58 63.94 66.46 69.62 72.77 73.13 72.96 72.83 74.93 77.20 75.99 76.35 76.87 77.22 77.04 77.03 77.08 76.98 77.13 77.34 77.24 76.94 76.61 76.28 75.76 75.62 75.17 74.52 73.68 72.45 71.37 70.97 71.31 71.04 70.12
58.07 58.54 51.27 49.64 50.97 53.52 53.96 55.19 54.21 55.97 56.20 55.82 54.93 56.52 59.52 65.09 64.59 68.83 72.82 73.14 73.29 72.20 74.59 77.82 76.03 76.17 76.37 76.57 76.56 76.36 76.47 76.60 76.75 76.88 76.86 76.68 76.13 75.58 75.31 75.19 74.74 74.33 73.72 73.27 72.38 72.22 71.97 71.86 70.96
55.83 55.00 51.54 51.54 52.08 53.19 53.61 55.48 53.20 54.09 55.82 55.83 58.21 56.10 60.83 63.46 64.16 67.85 72.28 72.59 72.64 72.33 73.65 77.75 75.87 76.36 76.17 76.14 75.78 75.75 75.55 75.55 75.63 75.70 75.77 75.65 75.33 75.01 74.91 74.74 74.44 73.99 73.71 73.48 72.87 72.61 72.32 72.13 71.38
56.88 55.86 51.82 52.39 51.19 52.18 56.75 56.26 56.40 54.25 55.05 59.84 59.92 56.29 58.44 62.24 63.86 66.20 70.46 71.53 71.72 71.48 72.71 76.79 75.37 75.43 75.59 75.69 75.98 75.72 75.47 75.50 75.25 75.22 75.25 75.14 75.10 74.68 74.63 74.05 73.92 73.94 73.82 73.52 73.04 72.87 72.28 71.96 71.86
57.92 51.37 49.48 51.28 51.66 53.35 57.31 55.97 57.69 58.45 56.49 58.87 59.36 59.55 61.75 62.41 63.46 64.13 66.63 70.30 70.44 70.27 72.34 75.21 74.39 74.57 74.69 74.64 75.69 75.66 75.51 75.53 75.47 75.09 75.15 74.52 73.16 73.84 73.50 73.01 73.84 73.77 73.77 73.62 73.30 72.98 72.51 72.01 71.41
53.36 49.97 50.13 54.09 55.39 54.72 55.93 56.84 57.14 56.00 55.37 55.94 58.20 60.72 62.10 62.00 62.20 61.88 62.96 66.44 69.08 69.85 71.03 73.15 74.57 74.38 74.37 73.23 75.22 74.85 74.33 74.39 74.31 73.78 74.57 73.84 73.10 74.00 72.68 73.59 74.21 73.75 73.55 73.75 73.37 73.12 72.75 71.21 67.82
52.95 49.54 52.61 53.28 55.00 56.10 55.62 55.84 58.24 56.68 54.62 55.76 55.68 58.99 60.37 60.59 61.60 61.17 61.59 64.75 69.38 69.96 71.17 71.72 75.79 77.33 74.68 72.97 73.47 74.17 73.06 73.40 74.27 74.72 76.18 75.95 73.51 73.97 73.57 72.96 72.99 72.92 73.01 70.68 71.29 70.76 69.92 69.04 68.45
50.39 52.75 53.58 53.82 54.41 54.04 53.99 56.63 55.98 57.05 57.48 59.32 57.53 59.78 59.42 59.34 60.19 60.57 60.96 62.56 65.68 69.66 70.20 71.34 74.04 76.94 76.96 74.07 72.83 73.79 72.24 73.67 73.72 74.03 77.74 76.96 74.31 76.04 75.92 73.22 73.49 75.05 72.36 72.29 72.03 71.21 72.32 70.80 70.32
50.25 51.33 52.68 53.54 53.44 53.65 54.55 54.42 55.32 56.34 58.94 59.83 59.11 57.67 58.49 59.09 58.73 60.51 61.61 62.74 65.00 66.23 70.28 70.31 72.92 76.00 77.33 78.30 73.77 74.34 74.32 73.10 73.91 74.55 76.53 75.27 74.68 75.96 75.31 75.58 73.18 73.90 73.11 72.56 72.39 71.96 72.43 71.24 70.98
50.24 50.31 50.50 51.95 52.27 52.31 51.64 52.74 54.06 55.69 58.45 58.40 56.74 56.93 58.51 59.82 57.97 58.38 59.93 62.22 64.69 66.43 67.84 70.79 71.44 75.74 74.83 76.02 77.84 77.01 77.41 74.38 74.28 74.31 75.23 77.33 75.83 77.16 74.14 74.37 73.01 72.57 72.19 71.73 71.69 72.49 71.85 71.40 71.42
49.96 47.25 48.94 49.88 50.83 50.56 51.84 48.80 49.63 53.64 55.13 55.22 55.72 56.35 58.19 60.56 59.93 57.82 58.70 62.35 63.04 64.86 66.72 68.71 73.21 73.08 75.01 75.10 76.23 76.01 74.06 74.32 73.70 74.32 77.34 77.48 77.56 77.20 75.97 73.14 72.88 72.66 73.63 74.03 72.79 72.08 72.00 70.31 71.09
46.75 47.38 43.75 48.56 49.80 50.09 49.82 44.70 50.40 53.39 53.45 53.50 54.01 55.35 56.71 59.87 61.08 60.00 59.38 60.66 62.71 64.19 64.83 66.74 69.54 72.00 74.54 74.11 74.16 73.83 73.26 73.09 73.26 73.38 74.68 75.88 77.88 77.23 76.50 73.28 73.18 73.52 73.06 71.46 70.54 70.61 69.95 70.09 69.56
46.09 41.68 43.66 45.47 49.63 49.38 48.79 45.96 50.46 53.21 53.04 52.69 53.53 54.45 55.66 58.33 60.29 60.05 59.63 60.06 61.39 63.22 64.84 65.32 68.89 71.62 74.46 73.71 73.76 74.16 74.99 72.88 72.01 72.76 72.32 75.76 75.62 75.73 75.46 73.76 73.44 76.01 71.85 71.31 70.75 70.43 70.63 69.85 71.56
42.38 43.23 44.29 43.84 47.60 47.97 46.52 46.77 49.47 52.01 51.97 52.04 52.92 53.52 54.29 56.86 57.80 58.70 59.46 59.48 61.86 62.86 64.61 65.73 66.09 69.71 74.34 74.25 75.11 72.80 71.52 72.25 71.91 71.45 72.04 74.05 72.89 73.47 75.12 72.59 73.77 72.97 70.35 69.38 68.73 70.53 70.20 70.74 71.21
45.01 44.03 43.97 46.50 47.61 46.34 46.46 47.18 48.70 51.16 51.74 51.19 51.89 52.86 53.67 55.50 57.48 58.62 58.83 58.58 59.95 62.48 63.73 64.21 65.67 67.57 69.73 72.42 71.23 71.75 70.98 70.77 70.27 70.63 72.42 73.21 72.59 72.86 74.58 72.11 72.40 71.75 70.60 71.91 69.93 68.74 71.02 70.68 73.09
44.78 43.24 43.21 45.83 47.56 46.34 45.90 45.64 48.22 49.93 50.69 51.55 51.78 52.48 53.02 54.07 55.28 56.92 57.81 58.66 60.43 60.28 63.86 63.72 64.41 66.24 66.89 68.18 73.54 72.38 73.66 73.23 72.86 71.72 71.39 71.87 73.00 73.78 73.90 73.32 71.75 72.51 72.02 72.27 72.26 72.67 70.94 71.56 73.30
43.58 42.56 43.18 43.14 46.30 47.30 45.46 43.78 45.90 48.69 50.42 51.20 51.96 52.92 53.48 53.85 53.76 55.07 55.99 58.67 59.63 59.69 59.75 62.88 63.00 64.16 67.21 67.06 68.70 71.04 73.17 72.50 73.33 72.84 72.54 72.65 72.92 73.78 74.21 73.42 72.71 73.05 73.39 70.87 72.28 74.38 74.41 70.26 72.70
41.36 45.70 44.53 43.37 42.50 39.03 46.05 37.45 45.04 46.58 47.50 48.74 50.39 51.67 52.53 53.41 54.25 54.79 55.59 56.90 58.32 57.94 59.78 60.39 64.25 63.84 65.07 66.82 68.74 71.42 67.66 67.33 68.98 72.10 75.86 75.19 72.85 73.25 71.88 72.21 72.86 74.08 73.28 72.01 75.15 75.56 74.52 74.57 71.34
42.77 46.22 44.70 44.34 42.60 41.93 41.74 39.30 42.77 46.94 45.78 47.22 49.37 51.03 52.89 54.43 54.78 54.90 55.16 55.87 57.25 57.67 58.87 61.44 62.00 63.77 65.92 68.01 67.98 65.96 67.65 65.57 67.32 70.22 74.68 74.61 71.21 74.07 72.39 68.35 69.50 73.47 74.54 74.53 75.53 75.89 75.04 74.38 72.74
45.88 44.47 44.16 43.84 41.93 35.66 40.46 40.00 40.36 43.80 45.60 47.43 49.33 50.60 51.56 52.44 54.88 55.33 55.95 57.14 56.24 58.01 58.56 60.35 61.45 63.00 64.37 65.35 66.30 68.16 67.09 68.02 66.69 67.91 69.37 69.50 72.92 75.13 75.34 73.40 72.65 73.29 75.75 75.44 76.92 77.58 77.40 75.17 75.07
44.94 40.55 33.80 33.39 34.52 34.75 43.08 40.11 42.24 45.60 46.80 48.48 49.04 49.22 50.23 52.15 53.86 54.90 54.95 55.37 56.61 56.74 58.63 59.96 60.24 61.37 63.17 64.09 64.73 65.32 67.30 67.89 67.84 68.55 66.91 69.24 69.04 71.14 77.13 77.19 76.25 76.22 77.12 77.22 77.44 77.37 77.37 76.46 74.21
43.00 41.90 34.56 27.27 30.83 35.07 41.05 36.78 42.38 47.25 48.74 48.54 48.75 49.74 51.09 52.56 53.79 53.73 55.09 55.99 56.52 57.10 57.33 59.07 59.81 60.77 62.28 63.20 63.83 65.78 66.73 63.94 65.23 67.97 66.89 67.00 67.96 69.68 73.81 77.92 77.03 77.95 78.01 77.33 78.00 76.38 75.63 76.04 74.58
42.02 39.18 44.22 37.21 39.19 34.79 38.70 42.74 46.12 47.11 46.64 47.30 47.87 49.85 51.63 51.91 52.71 53.62 54.57 55.64 57.20 57.79 58.67 59.33 60.15 60.79 61.28 62.91 64.38 65.11 65.96 66.91 65.92 69.20 70.31 67.46 70.84 69.97 70.79 75.15 76.85 76.72 76.99 78.03 77.95 75.48 75.58 75.47 75.39
44.65 45.30 37.75 38.88 29.88 28.42 35.24 37.85 37.89 43.96 45.43 46.81 48.11 49.44 51.22 51.86 52.75 53.51 54.01 55.30 56.56 58.00 58.84 59.82 60.46 59.86 60.58 61.38 62.89 63.92 65.37 65.97 67.22 68.22 69.12 70.10 71.31 72.63 74.00 74.15 73.97 75.88 76.61 77.41 77.70 75.72 75.72 74.26 73.97
41.54 40.05 41.27 40.92 36.73 31.54 30.61 35.30 45.38 44.56 46.44 47.21 48.20 49.64 50.43 51.71 52.83 53.75 54.71 55.59 56.16 56.96 57.71 58.91 59.47 59.76 59.92 60.65 61.48 62.61 63.84 65.31 66.45 67.91 68.47 69.64 71.20 72.13 72.14 73.04 73.94 74.15 75.44 76.85 76.76 75.16 73.84 74.01 74.72
44.71 38.61 39.85 34.30 34.16 37.61 36.21 36.56 46.61 46.73 48.15 48.81 48.77 49.94 51.74 52.71 53.61 54.18 54.87 55.44 55.72 56.12 56.65 56.87 58.08 58.62 59.43 59.98 60.15 60.67 62.33 63.35 66.46 67.11 67.94 70.27 70.30 71.33 71.21 71.65 71.84 73.03 74.03 75.66 74.81 73.91 72.92 73.75 73.37

GFSSGP_sfc_wetblb_072.txt.gz
Wetbulb
65.21 64.90 64.41 58.46 51.62 52.07 49.52 52.56 57.10 54.42 54.29 57.26 57.71 56.88 57.16 57.58 56.49 57.51 70.52 70.06 75.06 73.51 75.70 76.45 77.73 78.34 78.42 77.94 77.39 77.26 76.62 76.50 76.78 76.95 76.73 76.88 77.05 77.08 77.08 76.68 76.56 76.09 75.19 73.95 72.84 71.48 70.31 68.86 67.73
62.53 64.12 61.21 55.99 49.41 47.06 49.77 55.02 54.92 55.77 55.75 57.07 56.80 56.62 55.85 57.10 63.39 65.28 68.86 71.75 75.43 73.91 75.66 75.63 77.60 77.85 78.09 78.09 77.51 77.07 76.67 76.47 76.62 76.73 76.78 76.88 76.95 77.02 76.75 76.50 76.46 75.53 74.34 73.01 71.64 70.41 69.28 68.51 67.87
62.45 64.22 55.87 53.27 49.87 47.45 49.57 54.45 54.43 55.10 56.08 55.52 55.13 57.35 57.06 59.76 63.43 65.22 69.34 72.28 75.68 74.39 75.07 76.01 77.33 77.62 78.01 78.03 77.67 77.10 76.80 76.70 76.75 76.88 76.75 76.97 77.07 77.02 76.59 76.43 76.26 75.03 73.54 72.16 70.83 70.42 70.12 69.30 68.33
60.62 60.39 58.24 49.86 48.30 52.33 52.65 55.31 55.64 54.99 55.75 56.15 56.34 54.69 59.45 64.07 63.82 66.88 70.39 71.99 72.49 74.78 74.08 76.07 76.92 77.29 77.65 77.83 77.57 77.37 77.10 76.82 76.78 76.88 76.90 77.02 76.94 76.79 76.31 76.17 75.90 75.06 73.74 72.42 71.70 71.11 70.63 70.17 69.63
60.09 57.79 51.84 50.17 49.46 51.74 54.38 56.29 55.15 54.23 54.97 55.17 56.05 54.32 58.54 63.58 64.92 67.07 70.99 72.02 71.80 74.12 74.30 75.58 76.60 77.12 77.52 77.62 77.50 77.32 77.34 77.19 76.95 76.95 77.10 77.09 76.74 76.33 76.01 75.92 75.60 74.89 73.79 72.86 72.05 71.54 71.41 71.40 70.88
54.48 56.53 49.20 47.35 50.49 53.60 54.76 56.04 54.78 54.04 55.39 56.19 55.06 54.89 57.77 64.65 63.67 65.11 71.07 72.35 72.14 73.33 75.24 76.12 76.18 76.82 76.91 77.29 77.16 77.11 77.08 77.26 77.31 77.11 77.06 76.84 76.38 76.11 75.72 75.55 74.98 74.70 73.78 73.02 72.48 72.04 71.92 71.75 71.68
52.55 52.04 49.47 49.89 50.00 52.04 54.48 57.20 53.74 53.30 53.94 55.71 58.43 54.06 59.50 61.90 63.35 65.17 70.40 72.12 73.36 73.29 76.32 76.07 75.03 76.36 76.76 76.63 76.45 76.55 76.61 76.64 76.84 76.59 76.38 76.39 76.00 75.58 75.14 74.84 74.63 74.25 73.73 73.30 72.91 72.55 72.24 71.94 71.75
54.70 53.40 49.11 50.42 50.18 50.58 55.24 55.41 56.37 54.21 53.23 59.01 59.60 55.47 57.03 61.79 63.74 64.15 66.76 70.99 71.71 71.81 76.66 76.09 74.32 74.18 75.19 75.70 76.43 76.28 76.20 76.10 75.94 75.99 75.97 75.69 75.45 75.11 74.79 74.11 74.07 74.00 73.73 73.50 73.18 72.79 72.44 72.22 71.92
55.45 49.15 47.59 48.68 50.03 52.01 55.99 54.92 57.56 58.06 55.23 57.21 59.23 59.17 60.68 62.66 62.63 62.55 63.81 69.14 70.25 70.05 75.96 75.28 73.13 74.12 74.08 74.40 75.43 75.74 76.00 75.74 75.58 75.34 75.51 74.36 73.97 73.62 73.33 73.02 73.48 73.90 73.78 73.66 73.28 73.06 72.56 72.36 71.99
51.09 48.37 47.94 51.78 52.97 52.71 54.82 55.03 56.40 55.81 55.41 55.48 57.78 60.75 61.38 61.56 61.37 61.02 61.14 63.89 68.78 68.90 71.95 74.79 73.00 73.34 73.49 72.81 74.87 74.51 74.87 74.94 74.71 74.26 74.65 73.63 72.60 72.74 71.30 72.80 73.50 73.81 73.76 73.75 73.33 73.18 72.83 71.72 67.77
50.93 48.20 50.99 51.75 53.00 53.56 53.07 54.15 56.80 55.64 54.50 56.46 55.85 58.74 60.57 60.64 61.46 60.59 60.45 63.01 65.04 70.34 71.11 74.17 73.52 74.02 73.19 71.99 74.60 73.77 73.49 73.32 73.42 73.50 73.81 73.43 72.18 72.49 72.16 72.24 71.11 72.29 73.16 70.30 71.43 70.59 69.78 67.45 66.75
48.40 51.08 51.88 52.36 53.27 52.83 51.92 54.02 53.40 54.98 56.43 59.10 59.07 59.29 59.58 59.61 62.13 59.50 59.62 60.49 64.95 70.33 71.55 74.01 74.65 74.15 73.92 72.91 73.56 73.75 72.15 72.47 72.60 72.77 74.23 74.44 72.46 72.79 73.64 71.88 71.56 71.40 71.52 70.40 69.37 68.62 68.70 68.09 68.23
49.24 50.48 51.83 53.06 52.96 53.07 53.63 51.98 52.19 53.10 57.15 59.60 60.01 59.24 58.81 58.90 62.21 64.12 61.93 62.34 67.69 66.46 70.86 72.07 74.67 75.52 74.58 76.27 74.69 73.74 71.49 72.46 72.65 73.55 74.06 73.73 73.63 73.08 73.78 74.27 73.04 72.90 72.41 71.26 70.32 69.44 70.76 69.61 69.39
49.55 49.71 50.39 51.69 51.40 52.00 50.81 51.15 52.02 53.57 56.72 57.31 58.43 59.12 58.37 58.97 59.66 60.71 62.63 64.31 67.53 67.21 69.03 70.86 74.71 76.07 76.01 77.59 78.68 77.87 74.06 72.84 73.36 73.68 73.84 74.69 74.44 74.48 74.31 74.79 73.97 72.97 73.32 72.55 71.59 71.18 70.97 70.37 69.47
49.51 46.66 48.35 48.92 49.84 49.14 51.01 48.25 48.66 53.07 55.14 55.12 55.98 57.82 57.85 58.42 58.45 60.36 60.74 65.47 66.85 66.52 69.02 71.00 71.37 75.42 74.69 74.59 76.65 76.95 76.93 75.75 74.25 74.18 75.44 74.47 74.97 75.10 74.35 73.92 72.84 72.68 72.68 73.59 73.18 72.13 71.82 70.27 70.68
46.67 46.87 42.81 47.59 48.98 49.41 49.20 44.08 49.85 52.78 52.76 52.44 53.20 54.72 56.10 57.75 58.49 61.35 61.64 63.09 65.16 67.61 66.86 70.14 69.92 72.16 73.88 74.81 74.44 75.18 75.23 75.06 75.64 75.31 75.89 75.54 74.89 75.82 76.22 73.54 72.57 72.60 73.57 72.96 71.20 70.71 69.12 68.70 68.62
44.80 40.48 42.67 44.58 48.88 48.08 47.79 45.04 49.52 51.85 52.09 52.34 53.27 54.25 54.55 56.33 58.73 62.14 61.95 63.47 64.45 66.47 66.88 67.61 69.04 72.10 73.19 72.60 73.55 74.16 73.60 73.50 73.53 72.88 74.45 74.91 75.48 74.86 73.93 73.35 72.49 74.20 72.01 72.24 71.32 69.83 68.85 68.28 69.32
41.13 41.95 43.18 43.18 47.12 48.02 46.33 46.15 49.16 51.10 51.13 51.98 52.73 53.51 54.46 55.06 56.82 61.57 62.65 63.00 64.36 66.06 66.95 67.18 68.52 70.03 73.80 72.35 71.75 71.38 71.88 72.12 71.72 70.79 71.45 73.29 73.48 74.80 74.10 73.53 73.65 74.50 71.70 70.65 69.61 68.30 69.63 69.51 68.68
45.14 43.65 42.49 45.24 48.13 47.08 46.13 46.04 47.52 50.40 50.74 50.46 51.96 53.28 54.42 55.20 57.44 60.80 61.54 61.80 62.73 65.79 66.99 67.49 67.27 67.86 70.91 73.01 70.69 70.12 69.78 70.75 70.02 71.33 70.70 71.59 72.77 72.95 73.17 72.85 72.22 73.01 70.71 69.78 69.29 68.95 69.19 68.32 68.64
44.41 43.04 42.68 45.37 47.41 46.73 45.70 45.16 47.68 49.13 50.08 51.47 52.07 52.80 53.65 54.91 56.34 59.26 61.91 61.58 62.80 64.02 66.05 65.93 67.61 68.81 66.86 71.87 73.55 70.57 70.26 71.48 70.05 69.46 69.10 70.11 72.43 71.51 71.80 71.59 71.27 70.37 69.83 70.08 70.03 70.34 66.86 67.69 70.16
43.36 41.98 42.12 41.94 45.27 46.67 45.31 43.09 45.21 48.24 49.98 51.25 52.46 53.98 54.53 54.82 54.88 57.26 58.58 60.88 61.84 63.41 63.60 62.91 66.14 65.80 67.63 69.27 68.32 71.32 72.14 72.51 71.10 72.42 69.59 68.97 69.00 70.36 70.46 71.34 70.14 71.25 70.35 68.55 70.76 70.20 69.54 66.35 69.47
40.14 44.89 44.22 43.25 41.69 37.63 45.29 36.94 44.37 47.52 48.36 50.05 50.97 52.23 52.94 53.70 56.00 56.91 57.94 59.83 60.90 61.14 63.49 65.02 64.82 66.96 64.30 66.84 68.03 68.29 67.20 65.97 66.77 66.57 72.40 72.86 71.20 69.48 70.33 70.38 70.74 70.57 69.16 70.51 70.50 70.15 68.61 69.41 68.20
42.11 45.67 43.98 43.46 41.64 41.40 41.20 37.97 41.57 46.30 44.99 47.52 50.09 50.83 52.71 53.76 54.67 55.12 55.42 57.99 58.88 60.85 62.15 64.49 64.75 65.80 66.23 64.64 66.07 66.93 66.90 66.29 66.87 69.12 69.10 69.76 72.53 70.85 70.84 70.76 69.67 69.47 70.19 68.42 70.23 68.93 70.27 70.71 69.94
46.51 44.06 43.46 42.76 40.55 34.12 39.50 38.96 39.71 42.89 45.62 48.03 50.37 50.24 51.42 52.66 54.50 55.28 57.40 57.85 58.53 59.06 59.89 62.07 64.15 66.29 67.30 67.48 65.80 65.43 66.66 67.03 65.89 66.35 67.37 68.18 70.09 70.91 72.47 70.69 70.81 70.66 71.01 70.20 69.00 70.27 71.49 71.22 70.34
44.54 41.08 33.36 32.29 32.59 31.67 40.95 37.47 41.77 46.56 48.41 48.87 49.31 49.79 51.99 52.83 52.95 54.78 55.40 55.69 57.25 57.90 59.84 61.00 62.59 63.45 65.26 65.29 64.90 66.10 65.68 66.93 66.62 66.40 64.49 65.71 65.57 68.54 69.85 70.91 69.72 69.05 69.29 69.59 69.27 71.46 71.54 71.70 70.49
42.50 40.62 34.93 27.09 29.32 33.18 41.14 34.54 40.87 47.96 49.13 49.18 50.73 51.27 51.72 51.03 52.40 54.18 55.41 56.43 56.01 58.55 60.16 60.72 62.33 62.11 63.70 64.78 63.65 66.34 65.18 65.30 65.05 64.82 64.11 64.37 64.39 65.37 68.43 73.33 71.78 71.51 71.87 71.71 72.66 73.39 73.08 73.78 73.04
41.70 37.18 43.35 37.28 38.65 34.60 37.08 39.25 44.59 48.09 48.39 48.27 48.35 48.99 49.68 51.71 54.18 53.48 53.84 56.55 57.85 59.66 61.30 62.70 61.86 62.44 63.28 64.15 65.96 66.07 67.11 66.84 64.75 65.69 66.54 65.26 66.67 67.18 68.55 68.18 70.30 75.02 74.32 74.39 74.10 73.57 74.00 74.43 74.43
41.99 43.59 35.05 36.49 27.45 26.55 34.68 36.66 37.60 43.18 45.18 47.94 47.48 48.05 50.02 53.13 52.66 53.26 53.86 56.13 57.83 58.98 61.56 61.98 61.65 61.01 61.35 62.90 63.86 64.44 65.96 67.05 66.50 66.94 66.77 66.53 67.15 67.86 67.92 68.59 70.15 74.60 74.52 74.69 74.80 74.65 74.65 74.18 73.98
40.14 38.62 40.61 40.37 38.40 30.12 28.46 34.11 44.71 44.26 46.80 46.74 47.72 48.85 50.49 51.88 51.88 52.70 54.20 55.90 56.77 58.11 57.31 61.36 61.39 61.39 61.43 61.97 62.36 63.06 64.43 65.36 66.72 66.72 67.42 67.57 67.88 68.56 68.11 68.26 68.75 69.23 71.30 73.84 73.98 74.05 73.95 73.26 73.14
44.19 41.24 40.82 32.52 32.20 36.33 34.26 33.98 46.97 46.74 47.57 49.35 48.16 49.51 50.66 51.59 52.19 53.26 53.95 55.21 55.87 56.77 57.27 58.51 61.15 59.81 59.15 61.57 61.93 62.72 64.16 64.43 64.55 64.87 65.49 67.51 67.47 68.05 68.24 68.08 68.88 69.33 70.94 71.41 71.76 72.58 73.90 72.96 71.81

GFSSGP_sfc_wetblb_075.txt.gz
Wetbulb
62.97 60.97 60.73 57.13 44.81 44.18 41.30 46.07 51.91 52.24 50.99 51.16 53.00 54.25 58.54 61.01 59.47 54.97 67.18 71.58 73.25 74.29 76.44 77.68 77.85 77.83 77.60 77.25 77.07 76.61 76.33 76.65 76.71 76.56 76.78 76.83 76.95 76.93 76.61 76.43 76.49 76.17 74.99 74.06 73.16 71.73 70.46 69.35 67.92
60.81 61.10 58.37 52.08 41.79 37.49 42.13 49.25 48.68 48.78 50.93 52.48 53.35 52.55 57.26 57.13 62.99 64.45 67.86 72.10 73.15 74.16 75.19 76.57 77.97 77.63 77.50 77.17 77.01 76.53 76.41 76.55 76.60 76.56 76.71 76.80 76.75 76.78 76.50 76.28 76.34 75.23 74.01 72.85 71.65 70.38 69.30 68.38 67.64
59.41 60.31 51.99 46.90 42.43 39.70 43.18 48.96 50.45 51.42 52.87 52.40 51.84 54.39 58.13 58.54 62.74 63.73 69.08 72.47 73.08 73.19 73.80 76.34 77.81 77.52 77.37 77.22 76.95 76.47 76.28 76.43 76.53 76.56 76.68 76.80 76.79 76.52 76.09 76.28 76.12 74.84 73.33 72.00 70.62 69.97 70.08 69.29 68.53
55.29 54.69 53.44 43.86 41.79 47.20 49.38 50.45 52.40 52.66 52.84 53.56 53.09 53.37 59.68 62.79 62.79 65.30 69.38 72.66 72.67 72.12 73.61 76.86 77.47 77.45 77.37 77.24 76.96 76.73 76.40 76.55 76.66 76.79 76.60 76.70 76.79 76.23 76.01 76.03 75.66 74.86 73.26 71.57 70.92 70.92 70.49 70.22 69.44
53.86 51.23 44.36 42.64 43.98 48.43 52.06 52.89 51.75 50.57 51.29 51.99 53.09 51.95 57.07 61.30 63.30 67.58 68.99 71.28 71.60 71.59 74.19 75.63 77.19 77.55 77.61 77.42 77.06 76.86 76.75 76.42 76.63 76.81 76.83 76.87 76.61 76.03 75.81 75.72 75.41 74.69 73.86 72.73 71.38 71.10 71.08 70.99 70.83
48.56 50.24 41.62 40.10 45.25 50.77 53.38 54.11 53.53 51.32 51.52 51.99 53.47 53.55 56.44 59.92 60.39 62.44 69.14 67.78 71.53 71.11 73.90 74.76 76.85 77.17 77.29 77.13 76.95 76.82 76.58 76.54 76.62 76.84 76.81 76.73 76.25 75.93 75.69 75.37 75.11 74.49 73.78 73.04 72.33 71.65 71.27 71.29 71.26
46.67 44.10 42.20 44.25 46.61 49.23 52.07 54.49 55.43 53.66 54.16 52.01 54.04 53.23 56.36 58.08 59.58 60.30 68.12 68.52 70.01 72.26 73.22 73.50 74.95 76.55 77.21 76.65 76.45 76.55 76.34 76.52 76.52 76.34 76.08 76.09 75.75 75.45 75.27 74.87 74.71 74.24 73.44 72.87 72.47 71.88 71.51 70.97 71.12
48.26 45.97 43.36 45.51 45.44 46.65 53.16 53.25 53.16 52.12 53.70 56.95 58.51 53.17 52.47 57.57 59.71 59.93 64.42 66.76 71.63 72.80 72.94 72.43 73.89 75.07 75.34 75.66 76.52 76.50 76.41 76.41 76.28 76.31 76.10 75.71 75.50 75.11 74.74 73.84 73.96 73.84 73.47 73.17 72.75 72.33 72.01 71.64 71.37
51.10 41.65 41.07 44.42 46.56 48.38 52.81 51.68 54.09 54.28 52.76 55.71 57.46 57.61 59.68 60.25 59.12 58.75 58.88 64.71 71.42 73.30 72.03 71.76 72.39 73.26 73.36 73.95 75.96 76.08 76.81 76.29 76.14 76.19 75.78 74.57 72.51 72.69 73.43 73.23 73.41 73.79 73.49 73.22 73.02 72.72 72.45 72.03 71.88
45.97 42.56 43.59 48.58 49.82 48.77 50.81 51.42 52.28 52.91 52.42 52.68 55.66 59.13 61.09 59.51 57.81 57.28 56.77 58.47 66.14 71.74 71.39 71.25 71.24 71.64 71.54 74.39 73.97 73.86 74.97 74.39 74.02 73.94 73.80 72.44 70.73 70.70 71.93 72.24 73.50 73.64 73.59 73.29 73.22 72.84 72.81 72.42 68.69
46.14 43.02 47.29 49.13 50.88 51.77 50.75 50.77 52.34 51.43 49.98 52.42 53.20 56.26 58.70 57.75 56.76 56.87 57.17 56.10 58.44 71.32 71.53 70.32 70.99 71.26 70.84 71.36 72.98 72.92 73.46 72.70 72.38 72.48 72.07 70.51 69.83 69.55 70.17 68.42 69.98 70.34 72.70 70.39 71.19 70.85 70.00 68.80 67.06
42.98 47.28 48.32 49.33 51.21 50.93 49.68 51.20 50.63 50.73 53.55 56.48 56.49 57.01 57.09 56.39 55.75 55.57 55.73 57.52 60.74 65.56 69.92 69.92 70.53 71.00 70.23 70.30 71.54 70.72 71.25 70.94 70.75 70.33 71.10 69.86 67.70 66.62 67.91 68.06 68.20 69.11 69.19 68.67 66.76 67.62 67.01 66.68 65.60
43.09 45.67 48.42 49.78 50.15 50.25 51.35 49.93 50.19 50.31 52.78 56.04 57.73 57.27 56.36 55.70 56.13 55.67 55.95 57.78 59.40 61.66 66.07 67.63 70.64 70.27 69.89 70.05 71.58 70.68 69.69 70.13 69.92 69.94 70.62 70.90 67.89 68.14 67.31 68.46 68.48 68.57 68.89 68.73 67.59 66.61 66.23 65.94 66.35
44.21 45.00 45.52 46.94 47.18 48.19 47.88 48.64 49.01 51.01 52.90 52.82 55.82 56.55 56.52 55.88 56.15 54.95 54.98 55.62 61.53 62.53 64.08 67.20 71.77 70.90 70.68 72.40 71.72 70.99 67.92 69.71 69.96 70.31 70.62 70.59 70.37 67.95 69.51 68.55 70.11 69.63 69.89 69.72 68.43 67.05 66.36 67.12 66.78
45.36 42.14 44.32 45.28 44.87 44.21 46.85 44.23 45.51 49.86 51.59 50.61 51.37 54.68 56.57 56.15 56.58 56.02 55.05 56.12 60.68 61.35 63.60 65.06 69.13 72.07 71.32 71.03 71.83 72.29 72.55 69.20 69.48 70.47 70.38 71.28 70.63 70.66 68.47 70.60 69.11 69.38 69.28 69.09 68.18 67.77 68.16 67.43 67.50
41.48 40.63 35.40 42.20 45.49 46.34 43.81 39.74 46.62 49.15 49.29 49.11 50.89 51.48 52.67 55.24 55.55 55.06 56.11 58.59 59.58 61.14 61.44 63.40 68.54 71.27 71.16 71.85 71.98 71.54 71.74 71.45 70.92 70.82 71.39 72.03 71.46 70.97 72.22 70.24 70.01 69.04 68.72 68.52 67.50 66.01 64.89 64.71 65.21
37.99 33.84 36.64 40.71 45.98 45.62 43.69 41.50 46.54 49.15 48.67 48.04 48.96 49.73 50.67 50.76 54.50 54.99 57.28 58.59 59.07 60.02 59.99 61.56 64.20 66.66 70.67 70.73 71.56 70.67 70.86 71.18 70.97 70.33 71.44 72.18 72.44 72.93 71.58 71.48 69.88 69.58 68.80 68.46 68.03 66.32 65.23 63.92 64.89
34.95 36.03 38.72 38.94 43.23 44.28 43.00 42.64 45.84 47.91 48.10 47.80 47.42 48.23 49.95 51.01 51.99 56.28 58.38 59.43 60.21 60.45 60.90 60.72 63.10 65.33 69.79 70.43 70.39 70.22 69.37 69.53 69.42 69.05 68.73 72.03 72.85 72.68 71.65 71.24 69.91 69.50 69.05 67.72 66.05 64.79 65.34 65.28 64.46
41.43 40.20 39.42 42.51 45.33 42.83 41.92 42.71 44.36 46.28 46.11 45.07 45.51 47.53 48.69 50.45 52.54 53.43 58.27 59.24 59.42 59.20 59.29 60.75 62.13 62.15 66.45 68.77 68.43 68.21 67.09 67.72 68.70 68.44 68.20 68.56 71.17 72.67 71.73 70.30 70.25 70.52 68.55 66.69 65.72 64.69 63.52 63.15 64.54
41.58 38.89 38.30 42.03 44.87 43.36 41.78 41.66 44.19 46.07 45.39 45.26 46.26 46.82 48.59 49.55 51.00 53.17 56.21 56.07 56.64 58.67 58.97 58.19 58.78 63.17 62.74 68.98 68.63 68.58 68.86 68.86 67.87 68.49 68.18 68.49 69.49 69.92 71.90 71.09 70.09 68.94 67.47 66.90 65.88 65.14 64.06 64.01 65.44
40.59 38.46 38.64 38.98 42.54 43.19 41.20 39.05 41.46 45.01 46.08 47.00 47.69 47.76 49.05 49.18 49.65 51.49 55.08 55.13 56.08 56.39 56.91 57.44 58.83 59.81 60.86 62.91 65.90 68.29 69.22 70.22 69.00 67.77 67.45 67.82 68.23 68.54 69.21 70.06 70.21 68.79 68.20 67.22 66.68 66.97 65.78 64.50 64.26
37.75 42.89 42.50 41.22 38.66 32.64 40.33 31.15 38.18 42.55 43.42 45.33 46.98 47.81 47.39 49.50 50.36 50.83 53.51 53.25 55.13 56.51 57.08 56.48 57.96 58.71 60.70 60.00 61.43 60.80 64.01 64.62 66.44 66.28 68.37 67.86 67.99 67.09 67.84 69.14 69.70 68.83 68.90 68.01 67.28 67.31 67.16 65.24 63.32
40.54 43.80 41.59 40.97 36.52 33.39 36.30 31.99 36.42 41.46 41.26 43.13 45.39 47.88 48.47 48.27 48.77 49.90 51.73 53.63 53.78 54.52 54.98 57.52 57.69 58.72 59.17 59.92 61.10 60.85 61.99 63.06 63.02 64.36 64.83 69.46 69.53 68.37 68.11 67.79 68.62 69.13 68.59 68.39 68.17 67.47 68.13 66.97 66.11
46.36 43.30 39.53 37.88 33.88 26.62 34.53 33.52 34.67 37.99 40.68 43.28 46.73 47.78 48.69 47.92 49.47 50.10 51.42 51.84 52.06 52.29 53.15 54.51 56.48 57.25 59.45 59.38 59.30 59.71 59.44 60.93 60.81 60.84 61.93 64.08 65.71 68.20 69.09 68.91 69.24 68.61 68.75 68.67 67.37 67.39 67.54 67.30 67.65
43.42 37.83 29.19 24.75 24.26 26.32 36.85 34.29 35.88 41.78 45.32 46.33 46.41 48.21 47.19 49.55 48.78 50.05 50.30 50.50 50.89 50.94 51.62 53.81 54.02 54.34 56.91 57.75 58.55 60.91 61.79 61.87 61.24 60.96 61.15 61.04 61.40 63.33 68.53 69.36 68.60 68.62 68.96 68.55 68.89 67.63 68.52 68.59 68.85
38.00 37.58 30.06 23.10 21.44 27.23 37.09 31.96 36.87 44.68 47.62 48.36 48.50 47.12 48.18 46.44 47.86 48.93 50.57 50.41 50.60 51.54 52.36 53.41 55.12 55.47 56.82 57.61 58.27 59.47 59.96 61.53 62.24 62.52 61.37 60.95 61.63 61.62 63.07 65.70 69.64 69.62 69.51 69.43 69.04 68.04 67.11 67.93 68.96
37.91 35.21 39.98 32.86 33.55 29.73 31.96 36.82 41.74 44.68 45.84 48.01 47.33 47.31 45.04 44.77 46.24 48.44 49.16 49.48 51.60 51.11 52.67 52.88 54.60 54.96 56.11 56.97 57.33 57.98 60.53 60.12 59.43 59.69 60.35 63.87 63.08 63.72 63.62 64.38 65.86 68.22 69.37 69.06 68.28 67.59 67.25 68.91 69.94
39.39 41.44 32.34 33.35 25.33 23.74 29.25 32.13 33.22 40.47 43.21 45.54 46.11 45.77 45.93 46.80 46.57 47.30 48.11 49.24 50.20 51.32 52.23 53.51 54.24 53.60 53.97 54.22 55.81 59.29 59.40 60.85 60.78 61.00 60.78 61.26 62.56 63.97 64.29 64.11 63.58 65.22 66.79 71.68 72.43 71.64 71.59 70.84 72.18
34.52 33.61 36.68 35.55 33.33 27.86 25.17 29.24 41.61 39.74 42.22 44.28 46.34 46.84 45.91 46.72 46.40 46.75 47.77 48.69 49.42 50.07 51.86 52.95 53.16 54.00 54.65 55.13 54.32 54.96 55.84 58.38 60.43 61.76 61.80 62.67 63.13 63.79 64.52 65.22 65.51 64.89 64.81 66.69 71.83 72.61 72.27 71.83 72.23
40.15 35.25 36.05 29.39 29.97 32.19 30.82 29.22 43.22 41.86 42.17 44.64 45.27 47.09 47.97 46.07 46.24 46.80 47.44 48.88 49.34 49.67 50.71 51.90 53.58 53.13 53.15 55.05 56.06 55.60 55.37 56.18 57.01 57.94 58.92 59.88 60.70 63.18 64.24 65.25 65.23 65.54 66.20 65.82 66.63 69.97 71.92 71.29 71.39